This is the latest recevied weather packets stored in our database for station/object KY4LEX. If no packets are shown the sender has not sent any weather packets the latest 10 day(s).
| Time | Temp. | Humidity | Pressure | Rain* | Wind** | Luminosity | Snow |
|---|---|---|---|---|---|---|---|
| 1778264787 | 22.22° C | 31% | 1018.9 hPa | 0 mm | - | 703 W/m² | - |
| 1778264484 | 22.22° C | 33% | 1019.2 hPa | 0 mm | - | 704 W/m² | - |
| 1778264179 | 21.67° C | 34% | 1019.2 hPa | 0 mm | - | 711 W/m² | - |
| 1778263877 | 21.67° C | 34% | 1019.3 hPa | 0 mm | - | 713 W/m² | - |
| 1778263573 | 21.11° C | 32% | 1019.4 hPa | 0 mm | - | 718 W/m² | - |
| 1778263270 | 21.67° C | 34% | 1019.3 hPa | 0 mm | - | 719 W/m² | - |
| 1778262966 | 21.11° C | 35% | 1019.6 hPa | 0 mm | - | 721 W/m² | - |
| 1778262664 | 22.22° C | 28% | 1019.7 hPa | 0 mm | - | 723 W/m² | - |
| 1778262361 | 21.67° C | 32% | 1019.8 hPa | 0 mm | - | 727 W/m² | - |
| 1778262057 | 21.11° C | 31% | 1020 hPa | 0 mm | - | 728 W/m² | - |
| 1778261755 | 20.56° C | 32% | 1020 hPa | 0 mm | - | 730 W/m² | - |
| 1778261451 | 21.11° C | 34% | 1019.8 hPa | 0 mm | - | 729 W/m² | - |
| 1778261148 | 21.11° C | 35% | 1020.2 hPa | 0 mm | - | 731 W/m² | - |
| 1778260844 | 20.56° C | 34% | 1020.3 hPa | 0 mm | - | 730 W/m² | - |
| 1778260541 | 20.56° C | 37% | 1020.1 hPa | 0 mm | - | 729 W/m² | - |
| 1778260237 | 21.11° C | 35% | 1020.4 hPa | 0 mm | - | 725 W/m² | - |
| 1778259935 | 20.56° C | 36% | 1020.3 hPa | 0 mm | - | 729 W/m² | - |
| 1778259632 | 20.56° C | 39% | 1020.6 hPa | 0 mm | - | 723 W/m² | - |
| 1778259329 | 21.11° C | 39% | 1020.8 hPa | 0 mm | - | 726 W/m² | - |
| 1778259026 | 20° C | 42% | 1021.1 hPa | 0 mm | - | 719 W/m² | - |
| 1778258722 | 19.44° C | 39% | 1021.2 hPa | 0 mm | - | 715 W/m² | - |
| 1778258419 | 19.44° C | 39% | 1021.1 hPa | 0 mm | - | 712 W/m² | - |
| 1778258117 | 19.44° C | 41% | 1021 hPa | 0 mm | - | 711 W/m² | - |
| 1778257813 | 19.44° C | 41% | 1021.3 hPa | 0 mm | - | 706 W/m² | - |
| 1778257510 | 19.44° C | 40% | 1021.2 hPa | 0 mm | - | 703 W/m² | - |
* Rain latest hour (hover to see other rain measurements)
** Current wind speed in m/s (hover to see current wind gust speed)